Thunderstorms From: 20-05-2018 15:00 Until: 21-05-2018 15:00 warning for: Thunderstorms Level: Yellow info button

Although rather usual in this region, locally or potentially dangerous phenomena are expected. (such as local winds, summer thunderstorms, rising streams or high waves) Be aware and pay attention to the latest weather updates, especially if you carry out activities exposed to weather or close to a stream or shoreline. 


Meteo18 Weather Cam more information Meteo18 Weather Cam


warning for Thunderstorms more information blitzortung!


Rain radar more information rain snow radar


Visit our other weather sites:

Template documentation
and downloads

And another site



Weather Underground History page Text

Daily Summary for December 25, 2017 Units:  Metric    English   Both
« Previous Day
Next Day »
Daily Weekly Monthly Yearly Custom
  High: Low: Average:
Temperature: -17.8 °C -17.3 °C -16.4 °C
Dew Point: -17.8 °C -17.5 °C -16.8 °C
Humidity: Humidity % 93 % 95 %
Wind Speed: 0 km/h 0 km/h 9.7 km/h
Wind Gust: 0 km/h - -
Wind:- - SSW
Pressure: 0 hPa 34256.2 hPa -
Precipitation: 0 mm    
Historical Graphs
 
 
Tabular Data for December 25, 2017
Time Temperature Dew Point Pressure Wind Wind Speed Wind Gust Humidity Rainfall Rate (Hourly)
-17.8 °C -17.8 °C 0 hPa Calm     Humidity % 0 mm
00:02 -15.4 °C -15.9 °C 34808.1 hPa Calm   12.9 km/h 94 % 0 mm
00:12 -15.4 °C -15.9 °C 34808.1 hPa ESE 2.6 km/h 12.9 km/h 94 % 0 mm
00:17 -15.4 °C -15.9 °C 34808.1 hPa Calm   10.3 km/h 94 % 0 mm
00:22 -15.5 °C -16 °C 34808.1 hPa SSW 7.7 km/h 7.7 km/h 94 % 0 mm
00:27 -15.5 °C -16 °C 34797.9 hPa SE 2.6 km/h 7.7 km/h 94 % 0 mm
00:32 -15.5 °C -16 °C 34797.9 hPa ESE 5.1 km/h 12.9 km/h 94 % 0 mm
00:42 -15.5 °C -16 °C 34797.9 hPa ESE 2.6 km/h 7.7 km/h 94 % 0 mm
00:47 -15.5 °C -15.9 °C 34797.9 hPa Calm   7.7 km/h 95 % 0 mm
00:57 -15.5 °C -15.9 °C 34797.9 hPa SE 5.1 km/h 7.7 km/h 95 % 0 mm
01:02 -15.5 °C -15.9 °C 34797.9 hPa Calm   7.7 km/h 95 % 0 mm
01:12 -15.6 °C -15.9 °C 34784.4 hPa SSW 12.9 km/h 12.9 km/h 95 % 0 mm
01:17 -15.6 °C -16 °C 34784.4 hPa SSE 5.1 km/h 12.9 km/h 95 % 0 mm
01:22 -15.6 °C -16 °C 34784.4 hPa SSW 2.6 km/h 12.9 km/h 95 % 0 mm
01:27 -15.6 °C -16 °C 34784.4 hPa SW 12.9 km/h 12.9 km/h 95 % 0 mm
01:32 -15.6 °C -16 °C 34774.2 hPa SW 5.1 km/h 12.9 km/h 95 % 0 mm
01:37 -15.6 °C -16 °C 34774.2 hPa SSW 7.7 km/h 20.8 km/h 95 % 0 mm
01:42 -15.7 °C -16.1 °C 34774.2 hPa SW 10.3 km/h 20.8 km/h 95 % 0 mm
01:52 -15.7 °C -16.1 °C 34774.2 hPa SSW 7.7 km/h 20.8 km/h 95 % 0 mm
01:57 -15.7 °C -16.1 °C 34774.2 hPa SSE 2.6 km/h 15.6 km/h 95 % 0 mm
02:02 -15.7 °C -16.1 °C 34760.7 hPa SE 2.6 km/h 15.6 km/h 95 % 0 mm
02:12 -15.7 °C -16.1 °C 34760.7 hPa South 2.6 km/h 12.9 km/h 95 % 0 mm
02:17 -15.7 °C -16.1 °C 34760.7 hPa SE 5.1 km/h 12.9 km/h 95 % 0 mm
02:22 -15.7 °C -16.1 °C 34760.7 hPa Calm   12.9 km/h 95 % 0 mm
02:27 -15.7 °C -16.1 °C 34760.7 hPa South 2.6 km/h 12.9 km/h 96 % 0 mm
02:32 -15.7 °C -16.1 °C 34750.5 hPa SSE 7.7 km/h 12.9 km/h 95 % 0 mm
02:37 -15.8 °C -16.2 °C 34750.5 hPa SE 7.7 km/h 12.9 km/h 95 % 0 mm
02:42 -15.8 °C -16.1 °C 34750.5 hPa SE 2.6 km/h 12.9 km/h 96 % 0 mm
02:47 -15.8 °C -16.1 °C 34750.5 hPa SE 2.6 km/h 12.9 km/h 96 % 0 mm
02:52 -15.8 °C -16.2 °C 34750.5 hPa SE 2.6 km/h 12.9 km/h 96 % 0 mm
02:57 -15.9 °C -16.2 °C 34750.5 hPa SSE 2.6 km/h 12.9 km/h 96 % 0 mm
03:02 -15.9 °C -16.2 °C 34750.5 hPa SE 5.1 km/h 12.9 km/h 96 % 0 mm
03:12 -15.9 °C -16.3 °C 34750.5 hPa SSW 2.6 km/h 12.9 km/h 96 % 0 mm
03:17 -15.9 °C -16.3 °C 34750.5 hPa Calm   18.2 km/h 96 % 0 mm
03:22 -15.9 °C -16.3 °C 34750.5 hPa Calm   18.2 km/h 96 % 0 mm
03:32 -16 °C -16.3 °C 34740.4 hPa SW 12.9 km/h 12.9 km/h 96 % 0 mm
03:37 -16 °C -16.3 °C 34740.4 hPa SSW 7.7 km/h 20.8 km/h 96 % 0 mm
03:42 -16 °C -16.3 °C 34740.4 hPa SSW 7.7 km/h 20.8 km/h 96 % 0 mm
03:52 -16 °C -16.3 °C 34726.8 hPa SSE 12.9 km/h 20.8 km/h 96 % 0 mm
03:57 -16.1 °C -16.4 °C 34726.8 hPa Calm   15.6 km/h 96 % 0 mm
04:02 -16.1 °C -16.4 °C 34726.8 hPa SSE 2.6 km/h 15.6 km/h 96 % 0 mm
04:07 -16 °C -16.3 °C 34726.8 hPa SSW 7.7 km/h 15.6 km/h 96 % 0 mm
04:17 -16 °C -16.3 °C 34726.8 hPa Calm   7.7 km/h 96 % 0 mm
04:22 -16 °C -16.3 °C 34726.8 hPa Calm   7.7 km/h 96 % 0 mm
04:32 -16.1 °C -16.4 °C 34716.7 hPa SW 15.6 km/h 15.6 km/h 96 % 0 mm
04:37 -16.1 °C -16.4 °C 34716.7 hPa South 5.1 km/h 18.2 km/h 96 % 0 mm
04:42 -16.1 °C -16.4 °C 34716.7 hPa SSW 7.7 km/h 18.2 km/h 96 % 0 mm
04:47 -16.1 °C -16.4 °C 34716.7 hPa SE 5.1 km/h 18.2 km/h 96 % 0 mm
04:52 -16.1 °C -16.4 °C 34703.1 hPa South 10.3 km/h 18.2 km/h 96 % 0 mm
04:57 -16.1 °C -16.4 °C 34703.1 hPa SW 10.3 km/h 18.2 km/h 96 % 0 mm
05:02 -16.1 °C -16.4 °C 34703.1 hPa SW 10.3 km/h 18.2 km/h 96 % 0 mm
05:07 -16.1 °C -16.4 °C 34703.1 hPa SW 15.6 km/h 18.2 km/h 96 % 0 mm
05:12 -16.1 °C -16.4 °C 34703.1 hPa South 10.3 km/h 18.2 km/h 96 % 0 mm
05:17 -16.1 °C -16.4 °C 34703.1 hPa SW 10.3 km/h 20.8 km/h 96 % 0 mm
05:22 -16.1 °C -16.4 °C 34703.1 hPa SSE 2.6 km/h 20.8 km/h 96 % 0 mm
05:32 -16.1 °C -16.4 °C 34693 hPa SSE 2.6 km/h 20.8 km/h 96 % 0 mm
05:42 -16.1 °C -16.4 °C 34693 hPa SW 2.6 km/h 15.6 km/h 96 % 0 mm
05:52 -16.2 °C -16.5 °C 34693 hPa SW 10.3 km/h 15.6 km/h 96 % 0 mm
06:02 -16.2 °C -16.6 °C 34682.8 hPa SW 12.9 km/h 15.6 km/h 96 % 0 mm
06:07 -16.2 °C -16.6 °C 34693 hPa SSW 10.3 km/h 23.3 km/h 96 % 0 mm
06:12 -16.2 °C -16.6 °C 34682.8 hPa SSW 10.3 km/h 23.3 km/h 96 % 0 mm
06:17 -16.3 °C -16.6 °C 34693 hPa SSW 10.3 km/h 20.8 km/h 96 % 0 mm
06:22 -16.3 °C -16.7 °C 34682.8 hPa SW 10.3 km/h 20.8 km/h 96 % 0 mm
06:32 -16.4 °C -16.7 °C 34682.8 hPa SSW 12.9 km/h 28.5 km/h 96 % 0 mm
06:42 -16.4 °C -16.8 °C 34682.8 hPa SSW 2.6 km/h 23.3 km/h 96 % 0 mm
06:52 -16.5 °C -16.8 °C 34682.8 hPa SW 12.9 km/h 23.3 km/h 96 % 0 mm
06:57 -16.5 °C -16.7 °C 34682.8 hPa WSW 12.9 km/h 23.3 km/h 97 % 0 mm
07:02 -16.5 °C -16.7 °C 34682.8 hPa South 7.7 km/h 23.3 km/h 97 % 0 mm
07:12 -16.6 °C -16.9 °C 34682.8 hPa SSW 7.7 km/h 23.3 km/h 96 % 0 mm
07:17 -16.7 °C -17 °C 34669.3 hPa SSE 12.9 km/h 23.3 km/h 96 % 0 mm
07:22 -16.7 °C -16.9 °C 34669.3 hPa SSE 2.6 km/h 25.9 km/h 97 % 0 mm
07:27 -16.7 °C -16.9 °C 34669.3 hPa South 5.1 km/h 25.9 km/h 97 % 0 mm
07:32 -16.7 °C -16.9 °C 34669.3 hPa SW 7.7 km/h 18.2 km/h 97 % 0 mm
07:37 -16.7 °C -16.9 °C 34659.1 hPa SW 15.6 km/h 18.2 km/h 97 % 0 mm
07:42 -16.8 °C -17 °C 34669.3 hPa SSW 18.2 km/h 23.3 km/h 97 % 0 mm
07:47 -16.8 °C -17 °C 34659.1 hPa SSW 12.9 km/h 23.3 km/h 97 % 0 mm
07:52 -16.8 °C -17 °C 34669.3 hPa SW 15.6 km/h 25.9 km/h 97 % 0 mm
07:57 -16.8 °C -17.1 °C 34659.1 hPa South 2.6 km/h 25.9 km/h 97 % 0 mm
08:07 -16.8 °C -17.1 °C 34659.1 hPa SSW 2.6 km/h 25.9 km/h 97 % 0 mm
08:12 -16.8 °C -17.1 °C 34659.1 hPa SSW 15.6 km/h 20.8 km/h 97 % 0 mm
08:17 -16.8 °C -17.1 °C 34659.1 hPa SSW 12.9 km/h 20.8 km/h 97 % 0 mm
08:22 -16.8 °C -17.1 °C 34659.1 hPa SW 15.6 km/h 18.2 km/h 97 % 0 mm
08:32 -16.9 °C -17.1 °C 34645.6 hPa SSW 5.1 km/h 28.5 km/h 97 % 0 mm
08:37 -16.9 °C -17.1 °C 34645.6 hPa SSW 15.6 km/h 28.5 km/h 97 % 0 mm
08:42 -16.8 °C -17.1 °C 34645.6 hPa SSW 10.3 km/h 28.5 km/h 97 % 0 mm
08:47 -16.8 °C -17.1 °C 34645.6 hPa SW 7.7 km/h 28.5 km/h 97 % 0 mm
08:52 -16.8 °C -17 °C 34645.6 hPa South 2.6 km/h 23.3 km/h 97 % 0 mm
08:57 -16.8 °C -17 °C 34645.6 hPa South 10.3 km/h 23.3 km/h 97 % 0 mm
09:02 -16.8 °C -17 °C 34645.6 hPa South 5.1 km/h 18.2 km/h 97 % 0 mm
09:12 -16.7 °C -16.9 °C 34635.4 hPa SSW 10.3 km/h 18.2 km/h 97 % 0 mm
09:17 -16.7 °C -16.9 °C 34635.4 hPa SW 5.1 km/h 18.2 km/h 97 % 0 mm
09:27 -16.6 °C -16.8 °C 34635.4 hPa SSW 7.7 km/h 15.6 km/h 97 % 0 mm
09:37 -16.6 °C -16.9 °C 34635.4 hPa SW 5.1 km/h 12.9 km/h 96 % 0 mm
09:42 -16.6 °C -16.9 °C 34635.4 hPa South 10.3 km/h 15.6 km/h 96 % 0 mm
09:47 -16.6 °C -16.9 °C 34635.4 hPa SW 18.2 km/h 18.2 km/h 96 % 0 mm
09:52 -16.5 °C -16.8 °C 34635.4 hPa SSW 15.6 km/h 20.8 km/h 96 % 0 mm
10:02 -16.6 °C -16.9 °C 34635.4 hPa SW 7.7 km/h 20.8 km/h 96 % 0 mm
10:07 -16.7 °C -17.1 °C 34635.4 hPa WSW 25.9 km/h 25.9 km/h 96 % 0 mm
10:12 -16.7 °C -17.1 °C 34635.4 hPa SW 20.8 km/h 28.5 km/h 96 % 0 mm
10:17 -16.7 °C -17.1 °C 34635.4 hPa SSW 12.9 km/h 28.5 km/h 95 % 0 mm
10:22 -16.8 °C -17.2 °C 34645.6 hPa SSW 7.7 km/h 28.5 km/h 95 % 0 mm
10:32 -16.8 °C -17.3 °C 34635.4 hPa SSW 25.9 km/h 28.5 km/h 94 % 0 mm
10:42 -16.8 °C -17.3 °C 34645.6 hPa WSW 12.9 km/h 31.1 km/h 94 % 0 mm
10:52 -16.8 °C -17.3 °C 34645.6 hPa WSW 15.6 km/h 28.5 km/h 94 % 0 mm
11:02 -16.8 °C -17.3 °C 34645.6 hPa SW 10.3 km/h 25.9 km/h 94 % 0 mm
11:07 -16.7 °C -17.1 °C 34645.6 hPa SW 7.7 km/h 25.9 km/h 95 % 0 mm
11:17 -16.7 °C -17.1 °C 34635.4 hPa SW 10.3 km/h 28.5 km/h 95 % 0 mm
11:22 -16.7 °C -17.1 °C 34635.4 hPa SW 12.9 km/h 28.5 km/h 95 % 0 mm
11:32 -16.7 °C -17.1 °C 34625.2 hPa SSW 23.3 km/h 28.5 km/h 95 % 0 mm
11:37 -16.7 °C -17.1 °C 34625.2 hPa SW 15.6 km/h 28.5 km/h 95 % 0 mm
11:42 -16.7 °C -17.1 °C 34625.2 hPa SW 25.9 km/h 25.9 km/h 95 % 0 mm
11:47 -16.7 °C -17.1 °C 34611.7 hPa SW 20.8 km/h 25.9 km/h 95 % 0 mm
11:52 -16.7 °C -17.1 °C 34611.7 hPa SW 20.8 km/h 28.5 km/h 95 % 0 mm
11:57 -16.7 °C -17.1 °C 34611.7 hPa SW 15.6 km/h 28.5 km/h 95 % 0 mm
12:02 -16.6 °C -17 °C 34611.7 hPa SSW 12.9 km/h 28.5 km/h 95 % 0 mm
12:07 -16.6 °C -17 °C 34601.5 hPa SW 15.6 km/h 28.5 km/h 95 % 0 mm
12:12 -16.6 °C -16.9 °C 34601.5 hPa SW 18.2 km/h 25.9 km/h 95 % 0 mm
12:17 -16.6 °C -16.9 °C 34601.5 hPa SW 20.8 km/h 25.9 km/h 95 % 0 mm
12:22 -16.6 °C -16.9 °C 34591.4 hPa SW 18.2 km/h 28.5 km/h 95 % 0 mm
12:27 -16.6 °C -16.9 °C 34591.4 hPa SSW 12.9 km/h 28.5 km/h 95 % 0 mm
12:32 -16.5 °C -16.9 °C 34591.4 hPa SW 23.3 km/h 28.5 km/h 95 % 0 mm
12:42 -16.5 °C -16.9 °C 34577.8 hPa SW 20.8 km/h 36.2 km/h 95 % 0 mm
12:47 -16.4 °C -16.8 °C 34577.8 hPa SW 18.2 km/h 36.2 km/h 95 % 0 mm
12:52 -16.4 °C -16.8 °C 34567.7 hPa WSW 15.6 km/h 31.1 km/h 95 % 0 mm
13:02 -16.3 °C -16.7 °C 34567.7 hPa SW 20.8 km/h 31.1 km/h 95 % 0 mm
13:12 -16.3 °C -16.8 °C 34554.1 hPa SSW 25.9 km/h 33.6 km/h 94 % 0 mm
13:17 -16.3 °C -16.8 °C 34554.1 hPa SW 20.8 km/h 33.6 km/h 94 % 0 mm
13:22 -16.3 °C -16.8 °C 34554.1 hPa SSW 28.5 km/h 38.8 km/h 94 % 0 mm
13:32 -16.3 °C -16.7 °C 34544 hPa SSW 18.2 km/h 36.2 km/h 95 % 0 mm
13:42 -16.4 °C -16.8 °C 34544 hPa SW 18.2 km/h 36.2 km/h 95 % 0 mm
13:47 -16.4 °C -16.8 °C 34544 hPa SW 18.2 km/h 36.2 km/h 95 % 0 mm
13:52 -16.4 °C -16.8 °C 34533.8 hPa WSW 33.6 km/h 38.8 km/h 95 % 0 mm
13:57 -16.4 °C -16.8 °C 34533.8 hPa WSW 25.9 km/h 38.8 km/h 95 % 0 mm
14:02 -16.4 °C -16.8 °C 34533.8 hPa SW 10.3 km/h 38.8 km/h 95 % 0 mm
14:12 -16.4 °C -16.8 °C 34533.8 hPa SW 25.9 km/h 44.1 km/h 95 % 0 mm
14:17 -16.4 °C -16.9 °C 34533.8 hPa WSW 20.8 km/h 44.1 km/h 94 % 0 mm
14:22 -16.4 °C -16.9 °C 34520.3 hPa SW 25.9 km/h 44.1 km/h 94 % 0 mm
14:32 -16.4 °C -17 °C 34520.3 hPa SW 20.8 km/h 44.1 km/h 93 % 0 mm
14:37 -16.4 °C -16.9 °C 34510.1 hPa SW 23.3 km/h 44.1 km/h 94 % 0 mm
14:42 -16.5 °C -17.1 °C 34510.1 hPa WSW 15.6 km/h 44.1 km/h 93 % 0 mm
14:52 -16.6 °C -17.1 °C 34510.1 hPa SW 20.8 km/h 33.6 km/h 93 % 0 mm
14:57 -16.6 °C -17.1 °C 34510.1 hPa SW 15.6 km/h 33.6 km/h 94 % 0 mm
15:02 -16.7 °C -17.3 °C 34510.1 hPa WSW 12.9 km/h 31.1 km/h 93 % 0 mm
15:12 -16.7 °C -17.2 °C 34496.6 hPa SW 10.3 km/h 33.6 km/h 93 % 0 mm
15:17 -16.7 °C -17.2 °C 34496.6 hPa SSW 15.6 km/h 33.6 km/h 93 % 0 mm
15:22 -16.7 °C -17.2 °C 34496.6 hPa SW 12.9 km/h 25.9 km/h 93 % 0 mm
15:32 -16.7 °C -17.2 °C 34496.6 hPa SW 20.8 km/h 31.1 km/h 94 % 0 mm
15:42 -16.7 °C -17.2 °C 34486.4 hPa SSW 7.7 km/h 28.5 km/h 93 % 0 mm
15:47 -16.6 °C -17.1 °C 34486.4 hPa SSW 23.3 km/h 28.5 km/h 94 % 0 mm
15:52 -16.7 °C -17.2 °C 34486.4 hPa SW 15.6 km/h 25.9 km/h 93 % 0 mm
16:02 -16.6 °C -17.2 °C 34476.3 hPa SSW 12.9 km/h 25.9 km/h 93 % 0 mm
16:12 -16.6 °C -17.2 °C 34462.7 hPa South 10.3 km/h 25.9 km/h 93 % 0 mm
16:17 -16.6 °C -17.2 °C 34462.7 hPa SW 10.3 km/h 25.9 km/h 93 % 0 mm
16:22 -16.6 °C -17.1 °C 34462.7 hPa SW 18.2 km/h 18.2 km/h 93 % 0 mm
16:27 -16.6 °C -17.2 °C 34462.7 hPa SW 10.3 km/h 18.2 km/h 93 % 0 mm
16:32 -16.6 °C -17.1 °C 34462.7 hPa South 10.3 km/h 23.3 km/h 94 % 0 mm
16:37 -16.6 °C -17.1 °C 34462.7 hPa SW 7.7 km/h 23.3 km/h 94 % 0 mm
16:42 -16.6 °C -17.1 °C 34462.7 hPa SW 2.6 km/h 20.8 km/h 94 % 0 mm
16:47 -16.6 °C -17.1 °C 34462.7 hPa SW 10.3 km/h 20.8 km/h 94 % 0 mm
16:52 -16.6 °C -17.1 °C 34452.6 hPa SW 5.1 km/h 20.8 km/h 94 % 0 mm
16:57 -16.5 °C -17 °C 34452.6 hPa Calm   12.9 km/h 94 % 0 mm
17:02 -16.5 °C -17 °C 34452.6 hPa South 2.6 km/h 12.9 km/h 94 % 0 mm
17:07 -16.4 °C -16.9 °C 34452.6 hPa Calm   10.3 km/h 94 % 0 mm
17:12 -16.4 °C -16.8 °C 34442.4 hPa SSE 2.6 km/h 10.3 km/h 95 % 0 mm
17:17 -16.3 °C -16.7 °C 34442.4 hPa South 5.1 km/h 12.9 km/h 95 % 0 mm
17:22 -16.3 °C -16.7 °C 34442.4 hPa SSE 2.6 km/h 12.9 km/h 95 % 0 mm
17:27 -16.3 °C -16.7 °C 34428.8 hPa South 7.7 km/h 15.6 km/h 95 % 0 mm
17:32 -16.3 °C -16.7 °C 34428.8 hPa SSE 2.6 km/h 15.6 km/h 95 % 0 mm
17:42 -16.2 °C -16.6 °C 34418.7 hPa SE 2.6 km/h 18.2 km/h 95 % 0 mm
17:47 -16.2 °C -16.6 °C 34418.7 hPa Calm   18.2 km/h 95 % 0 mm
17:52 -16.2 °C -16.6 °C 34418.7 hPa SSW 7.7 km/h 12.9 km/h 95 % 0 mm
17:57 -16.2 °C -16.6 °C 34418.7 hPa South 12.9 km/h 20.8 km/h 95 % 0 mm
18:02 -16.2 °C -16.6 °C 34405.1 hPa South 7.7 km/h 20.8 km/h 95 % 0 mm
18:12 -16.3 °C -16.7 °C 34405.1 hPa South 12.9 km/h 23.3 km/h 95 % 0 mm
18:17 -16.3 °C -16.7 °C 34405.1 hPa South 5.1 km/h 25.9 km/h 95 % 0 mm
18:22 -16.3 °C -16.7 °C 34405.1 hPa SSE 7.7 km/h 23.3 km/h 95 % 0 mm
18:27 -16.3 °C -16.6 °C 34405.1 hPa South 7.7 km/h 23.3 km/h 96 % 0 mm
18:32 -16.2 °C -16.6 °C 34405.1 hPa SSE 10.3 km/h 15.6 km/h 96 % 0 mm
18:42 -16.2 °C -16.6 °C 34395 hPa SE 5.1 km/h 15.6 km/h 96 % 0 mm
18:52 -16.3 °C -16.7 °C 34395 hPa SSE 10.3 km/h 12.9 km/h 95 % 0 mm
18:57 -16.3 °C -16.7 °C 34395 hPa SSE 2.6 km/h 12.9 km/h 95 % 0 mm
19:02 -16.4 °C -16.8 °C 34395 hPa SE 7.7 km/h 15.6 km/h 95 % 0 mm
19:12 -16.4 °C -16.8 °C 34395 hPa SSE 7.7 km/h 18.2 km/h 95 % 0 mm
19:17 -16.5 °C -16.9 °C 34395 hPa South 5.1 km/h 18.2 km/h 95 % 0 mm
19:22 -16.6 °C -16.9 °C 34395 hPa SW 15.6 km/h 18.2 km/h 96 % 0 mm
19:32 -16.6 °C -16.9 °C 34384.8 hPa SSE 5.1 km/h 20.8 km/h 96 % 0 mm
19:37 -16.7 °C -17.1 °C 34384.8 hPa SSW 18.2 km/h 20.8 km/h 95 % 0 mm
19:42 -16.8 °C -17.1 °C 34384.8 hPa SSE 7.7 km/h 20.8 km/h 96 % 0 mm
19:47 -16.8 °C -17.2 °C 34384.8 hPa South 10.3 km/h 23.3 km/h 96 % 0 mm
19:52 -16.9 °C -17.2 °C 34384.8 hPa SSW 7.7 km/h 23.3 km/h 96 % 0 mm
19:57 -16.9 °C -17.3 °C 34384.8 hPa SSW 18.2 km/h 28.5 km/h 96 % 0 mm
20:02 -16.9 °C -17.3 °C 34384.8 hPa SSW 15.6 km/h 28.5 km/h 96 % 0 mm
20:07 -16.9 °C -17.3 °C 34371.3 hPa SSE 10.3 km/h 25.9 km/h 96 % 0 mm
20:12 -17 °C -17.3 °C 34371.3 hPa SE 7.7 km/h 25.9 km/h 96 % 0 mm
20:22 -17 °C -17.3 °C 34361.1 hPa South 10.3 km/h 25.9 km/h 96 % 0 mm
20:27 -17 °C -17.3 °C 34361.1 hPa SSE 5.1 km/h 25.9 km/h 96 % 0 mm
20:32 -17 °C -17.3 °C 34361.1 hPa SSE 5.1 km/h 25.9 km/h 96 % 0 mm
20:37 -16.9 °C -17.2 °C 34361.1 hPa SSE 5.1 km/h 23.3 km/h 97 % 0 mm
20:47 -16.9 °C -17.2 °C 34347.6 hPa SSE 5.1 km/h 25.9 km/h 97 % 0 mm
20:52 -16.9 °C -17.2 °C 34347.6 hPa SSE 5.1 km/h 25.9 km/h 97 % 0 mm
21:02 -16.9 °C -17.2 °C 34337.4 hPa SSE 10.3 km/h 20.8 km/h 97 % 0 mm
21:12 -16.9 °C -17.1 °C 34337.4 hPa SSE 5.1 km/h 28.5 km/h 97 % 0 mm
21:17 -16.9 °C -17.1 °C 34337.4 hPa SSW 5.1 km/h 28.5 km/h 97 % 0 mm
21:22 -16.9 °C -17.1 °C 34327.3 hPa SSW 5.1 km/h 20.8 km/h 97 % 0 mm
21:27 -16.9 °C -17.2 °C 34327.3 hPa SSE 5.1 km/h 18.2 km/h 97 % 0 mm
21:32 -16.9 °C -17.2 °C 34327.3 hPa SSW 2.6 km/h 18.2 km/h 97 % 0 mm
21:37 -17 °C -17.2 °C 34313.7 hPa Calm   18.2 km/h 97 % 0 mm
21:42 -17 °C -17.2 °C 34313.7 hPa SSW 7.7 km/h 18.2 km/h 97 % 0 mm
21:47 -17.1 °C -17.3 °C 34313.7 hPa SSW 5.1 km/h 18.2 km/h 97 % 0 mm
21:52 -17.1 °C -17.3 °C 34313.7 hPa SSW 10.3 km/h 18.2 km/h 97 % 0 mm
22:02 -17.1 °C -17.3 °C 34303.6 hPa South 7.7 km/h 18.2 km/h 97 % 0 mm
22:07 -17.1 °C -17.3 °C 34303.6 hPa SSW 5.1 km/h 18.2 km/h 97 % 0 mm
22:12 -17.2 °C -17.4 °C 34303.6 hPa SSE 2.6 km/h 18.2 km/h 97 % 0 mm
22:17 -17.2 °C -17.4 °C 34303.6 hPa South 5.1 km/h 18.2 km/h 97 % 0 mm
22:22 -17.2 °C -17.4 °C 34293.4 hPa South 5.1 km/h 18.2 km/h 97 % 0 mm
22:27 -17.2 °C -17.4 °C 34293.4 hPa SE 5.1 km/h 10.3 km/h 97 % 0 mm
22:32 -17.2 °C -17.4 °C 34293.4 hPa SSE 5.1 km/h 10.3 km/h 97 % 0 mm
22:37 -17.3 °C -17.5 °C 34293.4 hPa South 2.6 km/h 15.6 km/h 97 % 0 mm
22:42 -17.3 °C -17.5 °C 34293.4 hPa South 5.1 km/h 15.6 km/h 97 % 0 mm
22:52 -17.3 °C -17.5 °C 34279.9 hPa South 10.3 km/h 15.6 km/h 97 % 0 mm
22:57 -17.3 °C -17.5 °C 34279.9 hPa SSW 15.6 km/h 15.6 km/h 97 % 0 mm
23:02 -17.3 °C -17.5 °C 34279.9 hPa SSW 5.1 km/h 12.9 km/h 97 % 0 mm
23:12 -17.3 °C -17.5 °C 34279.9 hPa South 7.7 km/h 15.6 km/h 97 % 0 mm
23:17 -17.2 °C -17.4 °C 34269.7 hPa SSE 2.6 km/h 12.9 km/h 97 % 0 mm
23:27 -17.2 °C -17.4 °C 34269.7 hPa South 5.1 km/h 20.8 km/h 97 % 0 mm
23:32 -17.2 °C -17.4 °C 34269.7 hPa SSW 5.1 km/h 20.8 km/h 97 % 0 mm
23:42 -17.2 °C -17.4 °C 34256.2 hPa South 2.6 km/h 15.6 km/h 97 % 0 mm
23:47 -17.2 °C -17.4 °C 34256.2 hPa SSW 2.6 km/h 10.3 km/h 97 % 0 mm
23:52 -17.2 °C -17.4 °C 34256.2 hPa South 2.6 km/h 10.3 km/h 97 % 0 mm
Meteo18
Compliments of Weather Underground - 4 mb

Script developed by  Jim McMurry - jmcmurry@mwt.net Adapted for the template by  Wim van der Kuil - Leuven-Template.eu

You find our weather info also at:

European Weather Network

Weather Underground

Equipment we use:

Weather-station
Davis Vue

Weather-program
Meteobridge

Weather-server
Raspberry PI 2 B+

Provider
1 and 1

Davis Vue

Meteobridge

Raspberry PI 2 B+

1 and 1